Temp
19 19 19 20 21 21 21 22 22 23 24 24 25 26 26 27 27 28 29 29 28 28 28 29 29 28 28 26 27 28 22 24 24 23 23 23 21 20 20 19 18 19 18 17 16
19 19 19 20 20 21 21 22 22 23 24 24 25 25 26 26 27 28 30 29 28 28 28 29 28 28 26 25 25 23 21 24 27 24 23 22 21 20 19 18 17 16 16 16 16
18 19 19 20 20 21 21 22 23 23 23 24 24 25 25 26 26 29 29 29 29 28 29 28 28 27 25 25 24 24 23 25 26 25 23 22 21 20 18 18 17 17 17 16 16
18 18 19 19 20 20 21 22 22 23 23 23 24 24 24 25 25 29 29 29 29 29 28 28 28 28 27 26 27 25 27 28 26 24 23 22 21 20 20 19 18 17 17 16 16
18 18 19 19 20 20 21 21 22 22 22 23 23 23 24 24 27 28 29 29 29 29 29 29 29 28 27 27 27 28 27 27 26 25 24 23 21 21 20 19 18 17 16 16 16
18 18 19 19 19 20 20 21 21 21 22 22 22 23 23 21 28 28 28 29 29 29 30 30 30 29 28 28 28 29 28 26 25 25 24 23 22 22 20 19 17 17 17 17 18
17 18 19 19 20 20 20 21 21 21 21 22 22 22 22 26 28 28 29 28 29 29 30 30 29 29 30 28 29 28 25 25 26 25 24 23 22 20 20 19 18 17 18 17 18
16 17 18 19 20 20 21 21 21 21 21 22 22 22 23 26 27 27 27 28 28 29 30 29 29 29 30 29 28 26 24 22 25 25 24 24 21 21 20 19 19 18 18 18 18
15 16 18 19 20 21 21 21 21 21 21 21 21 20 24 26 27 27 27 28 28 29 29 29 29 29 29 25 23 23 23 25 25 26 25 24 21 22 20 20 19 19 19 19 19
14 16 17 18 19 21 21 21 21 20 20 20 20 20 25 26 27 27 28 28 28 29 29 29 29 23 21 23 24 26 26 25 25 27 25 23 22 22 21 20 20 20 19 19 20
14 15 16 18 18 20 22 21 20 19 19 22 23 23 25 26 27 28 28 28 27 28 26 27 24 24 25 24 26 27 26 26 26 27 25 22 22 23 21 21 21 21 20 20 20
13 14 15 17 18 19 20 20 17 16 16 23 23 23 24 25 25 27 28 27 27 24 25 24 23 25 26 26 26 26 26 25 26 26 25 23 23 23 23 22 22 21 21 21 20
13 13 15 17 17 19 19 18 18 18 16 22 24 25 25 26 24 26 27 27 25 24 23 22 25 26 27 27 27 26 25 25 26 26 24 24 23 22 23 24 24 22 22 21 21
12 13 14 16 18 18 18 18 19 20 16 20 22 25 25 27 25 27 27 27 26 23 23 23 25 27 27 27 25 25 26 27 26 26 24 24 22 21 23 23 24 23 22 22 22
12 12 13 14 15 17 18 19 20 20 18 23 23 27 27 27 27 27 28 28 24 24 23 24 26 26 26 27 26 26 28 28 26 23 23 24 22 21 22 22 23 24 23 23 24
11 12 13 13 14 16 18 19 20 17 17 22 25 24 24 26 27 28 27 28 28 26 25 23 27 27 27 29 28 29 29 23 21 21 23 23 23 22 23 24 25 25 24 24 24
10 12 12 13 15 16 17 18 17 16 21 23 23 22 23 23 25 25 25 25 22 22 22 24 26 27 29 28 28 26 23 22 24 23 24 23 24 25 24 26 26 26 26 25 25
10 11 13 14 14 15 15 14 16 18 20 22 25 23 24 24 24 25 24 24 23 23 20 22 24 26 28 27 27 26 24 22 26 23 24 22 26 27 24 27 27 27 27 26 25
8 11 13 16 15 14 14 13 18 17 21 22 24 23 23 25 24 25 22 25 25 21 24 21 23 26 28 28 27 27 26 24 20 20 22 22 24 26 24 24 27 27 27 26 26
6 9 14 14 14 13 10 15 16 18 22 23 22 23 21 23 24 23 21 25 25 24 24 24 24 26 29 30 28 27 24 25 20 26 26 23 24 23 26 25 24 25 27 27 27
6 8 12 13 12 12 10 10 16 19 21 21 21 22 22 24 23 22 22 26 26 23 24 22 23 24 28 27 26 26 25 20 20 20 22 23 23 22 26 23 23 24 27 28 28
5 4 9 10 9 8 8 13 18 19 20 20 21 22 22 23 24 24 23 26 28 23 22 21 20 22 24 25 27 27 25 23 21 24 19 20 23 24 23 23 24 23 27 29 28
4 5 11 9 7 7 11 15 17 18 18 19 20 22 21 22 21 22 24 26 28 25 22 22 20 22 23 24 25 28 25 21 19 18 19 22 23 23 23 22 23 26 27 29 27
3 1 8 9 11 11 12 13 15 18 17 18 19 20 19 21 20 21 22 25 26 27 28 26 18 24 25 24 24 27 26 23 22 20 20 21 25 25 21 21 21 22 24 24 25
3 2 4 3 6 5 6 13 15 16 18 18 16 18 19 20 21 20 22 23 25 27 22 22 22 21 22 25 25 27 27 24 24 23 25 24 23 23 22 20 21 23 21 22 22
3 3 4 4 5 5 8 12 14 15 16 16 16 19 17 17 19 20 22 23 22 23 22 19 23 21 23 24 24 27 26 25 26 23 26 23 23 23 22 21 20 20 19 20 21
2 3 4 4 4 5 6 8 12 12 16 18 17 17 17 17 20 22 23 23 22 22 21 21 19 19 24 24 23 24 25 26 26 26 24 23 24 20 20 21 20 20 20 21 22
Height
1524 1522 1520 1519 1517 1516 1514 1512 1510 1509 1507 1507 1507 1507 1507 1506 1505 1505 1504 1506 1505 1505 1505 1503 1503 1504 1504 1505 1507 1505 1519 1526 1523 1520 1516 1517 1519 1521 1523 1525 1525 1525 1528 1533 1537
1523 1522 1520 1518 1516 1514 1512 1511 1509 1507 1506 1506 1505 1505 1505 1504 1503 1502 1503 1504 1504 1504 1505 1504 1505 1504 1504 1505 1507 1508 1521 1516 1509 1509 1511 1518 1520 1521 1526 1528 1529 1529 1533 1536 1540
1523 1521 1519 1517 1515 1513 1511 1509 1507 1506 1504 1504 1503 1503 1503 1503 1503 1497 1499 1501 1501 1504 1506 1506 1505 1504 1502 1503 1505 1507 1512 1504 1506 1511 1513 1518 1522 1523 1527 1531 1530 1528 1533 1538 1542
1522 1520 1518 1516 1514 1512 1509 1507 1505 1504 1502 1502 1502 1502 1502 1503 1507 1495 1496 1498 1499 1502 1504 1505 1504 1502 1501 1502 1499 1505 1500 1497 1507 1513 1514 1517 1522 1526 1526 1528 1531 1534 1536 1540 1544
1520 1518 1516 1514 1513 1510 1508 1506 1504 1502 1501 1500 1500 1500 1501 1501 1495 1495 1494 1496 1497 1500 1501 1502 1501 1501 1504 1498 1493 1499 1498 1504 1507 1514 1515 1518 1525 1525 1530 1531 1535 1537 1540 1542 1546
1518 1516 1514 1512 1511 1509 1507 1505 1502 1501 1500 1499 1499 1499 1499 1499 1493 1494 1494 1495 1496 1498 1500 1500 1499 1499 1498 1499 1498 1496 1500 1508 1513 1517 1520 1520 1526 1527 1535 1534 1536 1538 1541 1543 1546
1516 1514 1512 1510 1508 1506 1505 1503 1501 1499 1498 1497 1496 1496 1496 1490 1490 1490 1492 1494 1495 1497 1498 1499 1499 1499 1498 1500 1500 1501 1512 1517 1520 1519 1521 1523 1531 1532 1532 1535 1538 1539 1542 1545 1547
1513 1511 1509 1507 1505 1503 1503 1501 1499 1497 1496 1495 1494 1494 1490 1485 1486 1488 1490 1491 1493 1494 1496 1499 1499 1497 1497 1501 1506 1511 1520 1535 1523 1523 1523 1522 1540 1532 1534 1536 1540 1541 1543 1545 1547
1510 1508 1506 1504 1502 1500 1500 1498 1497 1495 1494 1493 1494 1493 1486 1482 1484 1487 1489 1491 1492 1493 1495 1496 1497 1497 1497 1503 1522 1520 1536 1529 1528 1520 1522 1525 1535 1531 1535 1537 1540 1542 1543 1544 1547
1508 1505 1503 1501 1499 1497 1497 1495 1494 1493 1493 1493 1492 1494 1483 1482 1483 1485 1487 1489 1492 1493 1495 1496 1495 1500 1505 1512 1535 1528 1529 1525 1525 1517 1518 1527 1528 1527 1533 1535 1537 1541 1543 1544 1544
1504 1502 1499 1498 1496 1495 1494 1494 1496 1495 1491 1487 1486 1482 1480 1481 1482 1484 1486 1488 1490 1491 1495 1495 1504 1511 1503 1505 1506 1508 1516 1521 1513 1508 1520 1524 1525 1522 1530 1535 1536 1537 1538 1540 1540
1500 1498 1496 1495 1493 1493 1493 1494 1497 1501 1490 1480 1479 1477 1477 1480 1483 1481 1485 1489 1489 1496 1495 1502 1508 1494 1496 1500 1506 1512 1516 1513 1506 1500 1514 1523 1527 1524 1524 1523 1526 1529 1532 1535 1539
1497 1495 1493 1492 1491 1491 1491 1494 1495 1495 1492 1473 1470 1470 1471 1475 1477 1476 1481 1484 1488 1495 1497 1506 1495 1489 1495 1502 1506 1508 1514 1508 1512 1507 1512 1519 1535 1533 1527 1529 1529 1529 1530 1534 1536
1493 1491 1490 1488 1491 1488 1490 1491 1492 1491 1497 1474 1465 1461 1465 1470 1472 1473 1477 1483 1486 1493 1496 1499 1490 1492 1496 1500 1503 1515 1492 1494 1501 1508 1533 1515 1555 1535 1526 1526 1524 1525 1528 1528 1530
1490 1488 1488 1488 1486 1487 1489 1489 1489 1489 1520 1458 1455 1453 1454 1463 1462 1466 1473 1479 1484 1487 1494 1496 1488 1490 1496 1490 1493 1501 1485 1489 1490 1514 1522 1526 1542 1530 1521 1526 1517 1516 1519 1522 1524
1485 1485 1484 1485 1483 1485 1485 1486 1487 1502 1512 1460 1448 1450 1454 1457 1459 1463 1470 1477 1479 1484 1485 1485 1483 1483 1481 1480 1485 1483 1489 1497 1510 1521 1543 1522 1531 1530 1520 1504 1500 1509 1514 1515 1518
1481 1480 1482 1480 1482 1482 1483 1484 1497 1507 1465 1456 1450 1448 1449 1457 1460 1460 1468 1476 1487 1503 1503 1488 1482 1477 1476 1484 1481 1487 1505 1539 1537 1544 1544 1518 1529 1512 1492 1485 1485 1490 1500 1504 1510
1477 1474 1475 1474 1478 1481 1482 1486 1497 1470 1463 1447 1443 1446 1450 1450 1458 1459 1466 1476 1475 1480 1501 1507 1507 1476 1470 1478 1487 1489 1497 1534 1542 1554 1536 1523 1523 1498 1478 1475 1475 1481 1487 1496 1504
1471 1469 1467 1469 1473 1476 1482 1490 1464 1462 1450 1450 1445 1452 1454 1447 1452 1457 1466 1467 1465 1471 1489 1505 1500 1467 1465 1465 1473 1487 1500 1492 1527 1534 1537 1525 1502 1481 1474 1470 1475 1482 1491 1493 1496
1467 1466 1461 1462 1468 1472 1478 1465 1456 1449 1444 1443 1455 1448 1458 1451 1454 1458 1467 1455 1462 1462 1465 1478 1496 1469 1464 1464 1469 1475 1479 1507 1521 1532 1538 1530 1518 1512 1485 1479 1477 1482 1486 1487 1491
1468 1465 1457 1456 1461 1467 1466 1464 1452 1444 1447 1447 1449 1450 1450 1448 1450 1458 1458 1449 1450 1458 1462 1473 1484 1481 1466 1472 1478 1482 1489 1501 1508 1523 1541 1543 1526 1487 1481 1481 1477 1477 1480 1483 1488
1468 1467 1455 1454 1462 1458 1461 1453 1448 1444 1444 1447 1446 1447 1447 1446 1448 1449 1454 1446 1442 1448 1467 1467 1482 1495 1483 1463 1463 1467 1476 1484 1515 1521 1529 1529 1518 1479 1478 1479 1477 1479 1478 1481 1486
1467 1461 1457 1457 1460 1459 1452 1448 1446 1445 1446 1447 1448 1445 1444 1449 1456 1449 1444 1437 1437 1444 1455 1462 1485 1501 1493 1476 1466 1468 1473 1482 1492 1505 1523 1527 1517 1481 1479 1481 1479 1477 1479 1482 1486
1469 1465 1453 1454 1451 1452 1451 1449 1448 1442 1446 1447 1447 1446 1448 1450 1449 1450 1447 1437 1436 1435 1438 1444 1474 1473 1484 1482 1471 1473 1470 1475 1482 1511 1512 1510 1493 1486 1486 1483 1482 1480 1480 1483 1486
1468 1465 1463 1463 1455 1457 1455 1444 1443 1442 1438 1440 1446 1445 1449 1455 1450 1451 1444 1441 1432 1429 1436 1444 1465 1468 1463 1459 1463 1462 1464 1473 1478 1479 1491 1485 1489 1479 1476 1476 1475 1478 1482 1483 1487
1468 1467 1465 1461 1456 1454 1447 1440 1437 1436 1435 1437 1441 1439 1444 1448 1445 1446 1442 1443 1442 1435 1441 1442 1456 1458 1465 1456 1458 1463 1459 1464 1465 1473 1471 1477 1479 1463 1472 1477 1478 1479 1481 1483 1487
1467 1466 1466 1460 1456 1455 1452 1449 1439 1436 1428 1429 1433 1438 1440 1439 1438 1436 1437 1439 1438 1441 1445 1447 1453 1466 1468 1455 1463 1475 1456 1457 1457 1456 1461 1480 1463 1460 1471 1473 1473 1476 1479 1482 1487
Wind_Speed
10 10 10 10 9 9 9 9 9 9 10 9 9 10 10 10 12 13 12 4 2 2 3 5 4 7 11 2 4 4 4 2 4 5 4 18 6 7 7 14 5 2 20 19 24
11 11 11 11 11 10 10 10 10 9 11 10 10 11 11 11 14 18 10 9 7 5 3 5 7 7 5 3 7 4 3 7 7 7 9 11 5 9 6 12 10 20 21 24 22
12 13 12 12 11 11 11 11 11 10 10 10 10 11 11 10 12 23 15 13 14 10 4 5 6 6 4 6 10 7 6 6 10 11 23 13 11 7 17 4 10 28 26 25 23
13 13 13 13 12 12 12 12 12 10 9 9 9 10 9 8 5 3 8 12 12 11 8 4 3 4 3 3 9 5 9 19 16 20 18 8 18 12 3 7 23 24 26 25 23
12 13 14 14 14 13 13 13 12 9 8 7 7 8 8 9 19 4 3 8 9 8 7 5 4 3 1 7 7 2 6 14 26 20 21 23 13 8 12 20 22 20 22 23 24
14 13 14 14 14 14 13 13 12 9 8 8 8 9 10 6 11 18 4 3 8 8 5 5 5 14 4 4 3 3 11 19 22 21 21 15 18 6 13 23 21 20 20 21 21
15 15 14 15 15 14 13 13 12 9 9 9 9 9 13 21 8 13 15 8 7 7 7 5 6 11 7 4 11 26 15 9 10 13 8 28 2 6 26 25 23 20 20 19 19
16 16 16 15 16 15 13 13 12 9 9 9 7 8 11 9 17 14 12 12 11 8 8 4 8 7 3 3 6 8 6 6 6 11 15 2 3 10 27 25 22 21 21 19 21
18 17 17 16 16 16 12 13 12 8 7 6 5 7 8 9 19 16 12 8 10 9 7 5 4 1 3 4 5 6 7 3 6 20 6 2 4 16 27 25 21 23 23 22 22
20 19 17 17 16 16 12 13 10 7 5 4 7 4 11 6 21 16 11 8 4 7 5 2 1 4 4 5 3 5 3 1 10 16 6 6 5 18 29 26 25 24 25 27 26
21 20 19 16 16 15 12 8 4 1 4 10 6 9 6 8 15 20 14 11 9 1 3 4 3 8 8 7 5 1 4 7 13 7 6 7 7 19 30 24 23 27 28 30 34
20 20 20 16 15 14 10 5 9 10 11 13 17 26 26 22 6 23 20 13 6 5 3 4 8 6 3 3 2 4 4 11 6 9 7 6 4 17 25 31 31 32 31 34 35
20 20 20 17 15 12 4 6 4 13 5 12 18 19 20 14 12 21 25 19 4 6 6 8 6 6 5 2 3 2 5 11 8 6 5 9 3 8 11 15 21 29 34 33 36
20 19 19 16 9 6 2 6 7 7 3 7 7 12 16 13 5 23 27 19 4 12 6 6 9 5 2 5 7 5 7 12 14 15 7 3 4 7 11 15 18 24 30 37 38
21 19 16 15 14 6 7 7 4 8 3 4 6 5 21 18 8 19 26 25 9 6 8 9 6 5 6 12 7 10 4 4 10 7 7 3 3 7 11 15 20 26 33 37 43
25 20 18 14 18 11 8 7 5 5 8 6 8 9 9 12 5 23 24 21 9 4 3 8 2 5 7 0 7 5 1 7 6 5 1 9 7 4 12 27 25 26 31 39 42
26 24 18 19 11 7 5 4 3 5 3 5 6 7 8 7 5 8 14 10 7 6 7 6 8 6 4 6 2 5 5 3 3 4 5 4 3 12 19 22 24 30 37 40 42
21 27 21 23 15 12 8 3 6 9 10 5 1 3 14 7 5 5 14 14 3 5 4 6 6 7 3 9 8 5 7 6 5 4 5 5 5 7 9 28 37 38 45 37 38
24 22 26 20 15 13 7 4 11 7 6 4 6 6 3 4 6 6 10 18 16 9 8 7 6 4 5 6 10 4 2 4 8 2 3 4 7 7 7 2 15 24 26 33 39
24 18 25 20 14 17 4 8 6 5 2 2 8 1 8 9 8 8 10 12 6 12 4 5 1 4 4 3 3 6 7 3 3 2 4 5 4 6 3 4 7 11 24 34 37
16 9 5 5 20 17 6 7 6 12 4 4 2 2 2 1 6 5 10 3 19 10 15 6 3 6 1 5 8 1 2 7 6 5 6 1 6 6 2 5 10 12 30 34 35
4 3 7 18 5 4 4 6 5 10 2 4 2 2 1 3 1 3 9 14 24 12 11 8 6 4 10 5 1 2 5 7 5 4 1 4 5 3 5 3 15 14 12 20 26
11 9 8 14 3 2 4 4 5 2 3 4 4 1 4 3 4 3 3 4 15 14 13 8 2 1 9 5 4 3 4 5 6 4 7 6 5 4 9 5 10 22 18 16 20
5 4 4 7 10 2 4 7 6 12 7 3 1 4 5 2 4 4 4 3 6 21 28 22 5 11 13 7 5 4 5 5 7 4 5 6 5 4 7 11 11 20 22 22 25
3 3 4 3 3 5 4 3 12 10 12 9 6 13 5 3 2 6 3 4 10 10 9 8 10 7 9 11 6 5 6 8 7 8 7 9 11 11 17 16 22 27 26 28 29
3 2 7 9 12 5 3 5 10 13 9 8 10 2 10 12 11 6 4 1 6 5 2 2 5 8 9 9 11 7 10 9 5 5 1 4 6 3 12 16 20 27 30 31 31
1 4 5 6 5 4 2 6 5 8 4 13 8 6 6 9 18 24 24 16 13 5 1 3 7 6 9 6 7 6 11 7 5 4 8 7 11 11 6 18 27 29 32 35 34
Wind_Direction
357 355 352 349 344 341 335 326 318 305 298 287 273 265 262 262 268 274 269 260 220 230 341 341 331 328 320 314 160 246 71 176 146 198 165 152 139 72 98 130 42 162 148 155 160
346 346 343 341 340 336 330 323 315 301 296 287 273 265 262 263 265 262 244 264 263 260 309 310 317 298 294 170 156 107 121 216 189 152 138 133 124 115 113 114 99 109 136 149 157
340 338 337 334 334 331 328 322 316 303 292 282 270 261 260 264 278 260 265 243 247 242 259 286 293 273 240 167 174 182 194 177 154 151 128 133 100 119 120 107 150 142 146 156 162
332 332 331 330 329 328 327 325 320 307 294 278 260 254 254 243 211 239 228 220 229 224 247 299 267 280 272 217 203 160 228 155 145 148 135 114 122 134 110 167 158 150 155 160 168
324 324 324 324 324 325 326 324 322 309 298 275 255 249 245 235 233 210 115 199 223 225 247 286 322 357 352 320 352 143 178 149 144 144 128 129 134 120 109 143 148 153 162 163 169
315 315 316 317 318 319 322 320 320 303 295 281 259 248 230 241 249 227 230 214 234 231 238 265 334 334 311 342 7 79 120 127 131 131 136 122 130 107 152 153 152 162 170 170 174
311 309 309 310 311 312 316 316 316 296 292 290 264 244 236 239 237 223 226 227 258 243 235 268 331 335 338 360 56 117 107 63 126 141 116 125 113 148 161 164 165 172 175 178 178
310 308 305 304 306 306 312 310 312 291 290 293 262 233 245 251 225 194 200 229 231 224 221 242 335 315 294 12 67 90 22 118 236 164 159 123 223 163 171 168 177 182 188 190 187
313 308 304 303 302 302 309 307 307 287 279 284 232 221 255 235 212 183 195 211 219 214 216 272 334 333 6 74 65 357 164 162 189 207 156 209 170 176 179 178 183 190 195 197 193
315 309 304 305 302 297 307 304 296 270 260 260 225 261 247 210 204 199 196 199 188 188 222 216 56 55 37 71 221 147 128 266 197 200 171 171 206 162 183 184 190 196 197 201 199
311 309 304 304 303 299 304 331 338 359 270 245 274 250 302 16 208 213 199 204 234 261 137 37 70 216 213 184 182 295 181 185 212 224 154 184 167 174 185 192 189 198 199 203 206
309 307 303 303 301 300 312 86 68 338 296 265 259 258 256 261 287 200 196 193 172 193 113 21 236 194 187 138 206 242 294 281 278 184 128 149 219 181 186 195 195 197 202 206 210
307 307 303 301 302 293 285 157 352 332 241 281 245 243 248 236 229 216 197 197 135 159 178 184 207 123 168 220 269 265 213 269 203 134 56 115 13 197 216 219 207 206 207 209 210
303 304 306 300 294 292 222 180 311 305 15 269 214 236 201 187 225 213 209 188 190 187 145 240 247 251 179 253 146 282 211 242 152 153 181 145 233 215 206 218 219 209 206 210 213
300 297 298 299 284 294 279 273 300 155 313 235 204 205 171 171 164 197 201 197 170 167 128 236 192 174 189 228 147 231 317 189 160 122 100 234 99 277 166 217 223 212 207 212 218
296 291 289 285 279 284 275 266 153 63 245 294 178 170 136 183 200 163 187 200 196 153 218 239 222 188 215 170 166 242 272 58 49 92 133 210 162 247 184 216 223 215 211 212 214
291 285 282 279 266 269 278 313 82 173 301 252 197 160 154 158 179 152 173 175 158 139 242 349 267 248 226 321 87 95 62 8 19 11 218 172 112 241 215 214 210 204 210 212 213
291 286 272 262 267 258 279 72 199 196 225 310 246 113 182 145 188 157 163 191 229 124 115 164 304 174 196 175 209 180 157 150 175 193 258 182 233 259 215 222 214 207 207 209 209
314 288 276 255 248 223 191 186 206 200 190 224 351 143 244 188 138 136 177 195 199 179 157 158 263 270 190 177 137 203 137 174 104 32 50 283 293 319 341 98 193 199 201 207 210
321 315 268 272 232 191 124 240 208 229 340 23 183 94 183 190 161 156 173 197 198 185 161 193 237 209 256 156 103 163 161 83 8 140 275 293 299 240 333 127 150 165 199 212 217
326 310 290 270 182 177 208 224 237 259 333 12 129 87 112 108 156 189 196 219 189 193 184 150 114 291 7 168 196 79 124 52 113 115 165 220 268 218 225 223 167 181 206 216 220
316 300 348 159 169 196 177 196 233 239 288 252 319 212 141 351 97 179 198 217 200 154 168 197 156 216 230 260 5 153 197 144 130 221 129 159 272 325 118 183 141 128 154 201 216
315 270 220 202 199 265 263 213 268 233 214 167 238 245 26 93 29 232 221 282 216 179 168 172 209 354 328 343 9 190 174 110 101 85 185 139 259 31 97 118 128 126 124 143 180
300 317 302 236 248 230 209 225 212 251 241 278 256 3 38 346 218 280 336 295 328 203 203 160 147 196 225 205 169 185 180 179 141 127 174 208 180 177 166 158 167 147 137 143 159
268 275 355 343 332 329 290 242 208 225 206 180 219 217 165 249 241 233 205 310 304 229 164 153 184 177 218 199 189 216 222 177 181 183 164 221 183 202 186 180 171 152 148 143 149
280 331 342 293 294 292 208 236 215 229 189 221 217 186 193 200 200 192 150 122 258 349 101 291 221 165 212 215 189 209 227 189 186 132 323 108 234 194 137 161 161 164 152 145 146
273 285 320 289 317 327 11 318 342 314 251 207 171 178 222 225 232 243 257 246 248 278 264 223 152 127 231 190 128 260 211 179 185 181 151 167 216 155 152 175 174 165 154 149 148